Hondo, TX

1:10 AM CST on December 12, 2017 (GMT -0600)
Hondo Municipal

Weather History for KHDO - March, 2014

Change the Weather History Date:

Thursday, March 20, 2014

  Actual Average Record
Temperature  
Mean Temperature 61 °F -  
Max Temperature 82 °F 71 °F 84 °F (1997)
Min Temperature 42 °F 48 °F 34 °F (2001)
Degree Days  
Heating Degree Days 4    
Growing Degree Days 11 (Base 50)    
Moisture  
Dew Point 36 °F    
Average Humidity 40    
Maximum Humidity 62    
Minimum Humidity 24    
Precipitation  
Precipitation 0.00 in - - ()
Sea Level Pressure  
Sea Level Pressure 30.13 in    
Wind  
Wind Speed 6 mph (East)    
Max Wind Speed 13 mph    
Max Gust Speed -    
Visibility 10 miles    
Events      
Averages and records for this station are not official NWS values.
T = Trace of Precipitation, MM = Missing Value Source: NWS Daily Summary

Daily Weather History Graph

Daily Weather History Graph

Search for Another Location

Airport or City:

Trip Planner

Search our weather history database for the weather conditions in past years. The results will help you decide how hot, cold, wet, or windy it might be!

Date:

Astronomy

Mar. 20, 2014 Rise Set
Actual Time 7:40 AM CDT 7:48 PM CDT
Civil Twilight 7:16 AM CDT 8:11 PM CDT
Nautical Twilight 6:49 AM CDT 8:39 PM CDT
Astronomical Twilight 6:21 AM CDT 9:07 PM CDT
Moon 11:50 PM CDT (3/20) 10:05 AM CDT (3/20)
Length of Visible Light 12h 55m
Length of Day
12h 07m
Waning Gibbous, 84% of the Moon is Illuminated
Mar 20
Waning Gibbous
Mar 23
Last Quarter
Mar 30
New
Apr 7
First Quarter
Apr 15
Full

Hourly Weather History & Observations

Time (CDT) Temp. Windchill Dew Point Humidity Pressure Visibility Wind Dir Wind Speed Gust Speed Precip Events Conditions
12:51 AM 55.0 °F - 30.9 °F 40% 30.18 in 10.0 mi East 4.6 mph - N/A   Clear
1:51 AM 48.0 °F - 28.0 °F 46% 30.18 in 10.0 mi NNE 5.8 mph - N/A   Clear
2:51 AM 48.9 °F - 30.0 °F 48% 30.18 in 10.0 mi NE 4.6 mph - N/A   Clear
3:51 AM 46.9 °F - 30.0 °F 52% 30.18 in 10.0 mi Calm Calm - N/A   Clear
4:51 AM 43.0 °F 38.8 °F 27.0 °F 53% 30.17 in 10.0 mi North 6.9 mph - N/A   Clear
5:51 AM 42.1 °F 39.2 °F 28.9 °F 60% 30.19 in 10.0 mi NNE 4.6 mph - N/A   Clear
6:51 AM 42.1 °F 37.1 °F 30.0 °F 62% 30.20 in 10.0 mi North 8.1 mph - N/A   Clear
7:51 AM 42.1 °F 36.6 °F 28.0 °F 58% 30.22 in 10.0 mi North 9.2 mph - N/A   Clear
8:51 AM 53.1 °F - 34.0 °F 48% 30.23 in 10.0 mi North 5.8 mph - N/A   Clear
9:51 AM 62.1 °F - 35.1 °F 37% 30.22 in 10.0 mi ENE 10.4 mph - N/A   Clear
10:51 AM 66.9 °F - 33.1 °F 28% 30.21 in 10.0 mi East 12.7 mph - N/A   Clear
11:51 AM 71.1 °F - 33.1 °F 25% 30.21 in 10.0 mi East 9.2 mph - N/A   Clear
12:51 PM 73.0 °F - 35.1 °F 25% 30.18 in 10.0 mi Variable 3.5 mph - N/A   Clear
1:51 PM 77.0 °F - 39.0 °F 25% 30.16 in 10.0 mi SSE 5.8 mph - N/A   Clear
2:51 PM 78.1 °F - 37.9 °F 24% 30.11 in 10.0 mi SE 5.8 mph - N/A   Clear
3:51 PM 79.0 °F - 39.9 °F 25% 30.08 in 10.0 mi SE 4.6 mph - N/A   Clear
4:51 PM 79.0 °F - 41.0 °F 26% 30.05 in 10.0 mi Variable 4.6 mph - N/A   Clear
5:51 PM 80.1 °F - 43.0 °F 27% 30.03 in 10.0 mi SSW 6.9 mph - N/A   Clear
6:51 PM 79.0 °F - 44.1 °F 29% 30.02 in 10.0 mi South 11.5 mph - N/A   Clear
7:51 PM 72.0 °F - 43.0 °F 35% 30.02 in 10.0 mi SSE 8.1 mph - N/A   Clear
8:51 PM 68.0 °F - 45.0 °F 43% 30.02 in 10.0 mi SE 6.9 mph - N/A   Clear
9:51 PM 66.9 °F - 44.1 °F 44% 30.03 in 10.0 mi SE 5.8 mph - N/A   Clear
10:51 PM 64.9 °F - 43.0 °F 45% 30.03 in 10.0 mi SE 8.1 mph - N/A   Clear
11:51 PM 63.0 °F - 43.0 °F 48% 30.03 in 10.0 mi SE 6.9 mph - N/A   Clear